Location: Unspecified
(0.0000°N, 0.0000°E)
Time: 03:35:25
(UTC+00:00)

Transit 4A - Pass Details

Date: 20 December 2018
Orbit: 868 x 977 km, 66.8° (Epoch: 16 January)

Event Time Altitude Azimuth Distance (km) Brightness Sun altitude
Rises 13:52:56 0° 306° (NW) 3,631 11.1 53.5°
Reaches altitude 10° 13:56:32 10° 286° (WNW) 2,702 10.8 52.8°
Maximum altitude 14:00:14 16° 249° (WSW) 2,296 10.9 52.1°
Drops below altitude 10° 14:03:59 10° 213° (SSW) 2,722 11.2 51.4°
Sets 14:07:40 0° 192° (SSW) 3,672 11.5 50.7°
